Location: Lansingburgh
(42.7845°N, 73.6696°W)
Time: 06:22:30
(UTC+00:00)

USA 116 - Pass Details

Date: 24 January 2020
Orbit: 405 x 834 km, 97.9° (Epoch: 18 November)

Event Time Altitude Azimuth Distance (km) Brightness Sun altitude
Exits shadow 23:43:22 25° 357° (N) 877 4.7 -19.5°
Maximum altitude 23:44:58 58° 286° (WNW) 481 3.6 -19.7°
Drops below altitude 10° 23:48:00 10° 206° (SSW) 1,464 6.3 -20.3°
Sets 23:49:59 0° 202° (SSW) 2,333 7.3 -20.7°
